Tracking 29493 objects as of 8-Sep-2024
HD Live streaming from Space Station
objects crossing your sky now

COSMOS 2392 DEB

Track COSMOS 2392 DEB now!
10-day predictions


NORAD ID: 27494
Int'l Code: 2002-037H
Perigee: 1,207.1 km
Apogee: 2,073.1 km
Inclination: 63.4 °
Period: 118.9 minutes
Semi major axis: 8011 km
RCS: 0.7736 m2 (medium)
Launch date: July 25, 2002
Source: Commonwealth of Independent States (former USSR) (CIS)
Launch site: TYURATAM MISSILE AND SPACE COMPLEX (TTMTR)

Note: This is SATELLITE DEBRIS
Your satellite tracking list
Your tracking list is empty




NASA's NSSDC Master Catalog

Two Line Element Set (TLE):
1 27494U 02037H   24251.93206663  .00000110  00000-0  11905-2 0  9997
2 27494  63.4445 184.4144 0540534 331.6390  86.8594 12.10780269975586
Source of the keplerian elements: AFSPC